Regional Weather Roundup
Issued by NWS Upton, NY

Current Version | Previous Version | Text Only | Print | Product List | Glossary On
Versions: 1 2 3 4 5 6 7 8 9 10 11 12 13 14 15 16 17 18 19 20 21 22 23 24 25 26 27 28 29 30 31 32 33 34 35 36 37 38 39 40 41 42 43 44 45 46 47 48 49 50
000
ASUS41 KOKX 222108
RWROKX

REGIONAL WEATHER ROUNDUP
NATIONAL WEATHER SERVICE NEW YORK NY
500 PM EDT TUE AUG 22 2017

NOTE: "FAIR" INDICATES FEW OR NO CLOUDS BELOW 12,000 FEET WITH NO
SIGNIFICANT WEATHER AND/OR OBSTRUCTIONS TO VISIBILITY.

NYZ071-072-176-178-NJZ106-104-222200-
NEW YORK CITY METRO AREA

CITY           SKY/WX    TMP DP  RH WIND       PRES   REMARKS
Central Park   MOSUNNY   88  71  57 VRB6G17   29.84F HX  94
Bronx Bot Gard   N/A     90  68  48 SE20      29.83S HX  93
LaGuardia APRT MOSUNNY   88  76  67 S15       29.81F HX  99
Kennedy INTL   MOSUNNY   83  77  82 S25G33    29.84F HX  92
Breezy Point     N/A     77 N/A N/A S16G22      N/A
Newark/Liberty MOSUNNY   90  70  51 S18G28    29.81F HX  95
Teterboro      MOSUNNY   91  69  48 S17G25    29.79F HX  96
$$

NYZ177-179-078>081-222200-
LONG ISLAND NEW YORK

CITY           SKY/WX    TMP DP  RH WIND       PRES   REMARKS
Jones Beach      N/A     79 N/A N/A S16G23      N/A
Matinecock PT    N/A     84 N/A N/A SW13G20     N/A
Farmingdale    SUNNY     82  75  79 S23       29.85F
MacArthur/ISP  PTSUNNY   82  76  81 S17G29    29.85F
Shirley        CLOUDY    81  76  84 S16G25    29.86F
Mt Sinai Harb    N/A     82 N/A N/A SW16G25     N/A
Westhampton    CLOUDY    78  73  84 SW12G23   29.89F
East Hampton   CLOUDY    76  73  91 S13       29.88F
Montauk          N/A     77  75  93 SW12G21   29.89F
$$

NYZ052-065-067-222200-
HUDSON VALLEY

CITY           SKY/WX    TMP DP  RH WIND       PRES   REMARKS
White Plains   MOSUNNY   86  74  67 S14       29.82F HX  94
Larchmont Harb   N/A     81 N/A N/A S21         N/A
Croton On Huds   N/A     88 N/A N/A S9G16       N/A
Newburgh       MOSUNNY   88  72  58 S12G23    29.82F HX  94
Montgomery     SUNNY     88  70  55 SW20G25   29.79F HX  93
Poughkeepsie   SUNNY     88  68  51 S10G21    29.77F HX  91
Albany         PTSUNNY   88  68  51 S17G28    29.72F HX  91
$$

NJZ001-105-106-008-010-013-015-019>022-104-222200-
NEW JERSEY

CITY           SKY/WX    TMP DP  RH WIND       PRES   REMARKS
Newark/Liberty MOSUNNY   90  70  51 S18G28    29.81F HX  95
Teterboro      MOSUNNY   91  69  48 S17G25    29.79F HX  96
Caldwell       MOSUNNY   89  71  55 SW9G18    29.81F HX  95
Somerville     SUNNY     89  71  55 VRB7G20   29.80F HX  95
Linden         NOT AVBL
Perth Amboy      N/A     88 N/A N/A SW15G21     N/A
Sussex         MOSUNNY   87  71  58 VRB7G18   29.81F HX  93
Andover          N/A     87  70  56 S9G18     29.82F HX  92
Trenton        MOSUNNY   91  72  53 SW13G22   29.83F HX  98
Millville      SUNNY     91  75  59 SW10      29.87F HX 101
Atlantic City  SUNNY     87  76  69 S13G24    29.89F HX  97
Wrightstown    NOT AVBL
Toms River     PTSUNNY   88  77  69 S15       29.87F HX 100
Belmar         MOSUNNY   90  71  53 SW15G24   29.86F HX  96
$$

PAZ047>061-062-071-222200-
EASTERN PENNSYLVANIA

CITY           SKY/WX    TMP DP  RH WIND       PRES   REMARKS
Philadelphia   MOSUNNY   92  71  50 SW18G30   29.85F HX  98
Allentown      PTSUNNY   90  69  50 S20       29.82F HX  94
Scranton       CLOUDY    86  66  51 SW14      29.81F
$$

CTZ002-004>006-009-010-012-RIZ004-006-007-MAZ004-011-015-222200-
SOUTHERN NEW ENGLAND
 IN CT

CITY           SKY/WX    TMP DP  RH WIND       PRES   REMARKS
Bradley INTL   MOSUNNY   88  71  57 S20       29.79F HX  94
Hartford       MOSUNNY   86  73  65 S16G26    29.80F HX  93
Danbury        MOSUNNY   86  73  65 S15G22    29.84F HX  93
Wtrbury/Oxford MOSUNNY   83  74  74 S9G17     29.86F HAZE
Norwalk Harbor   N/A     82 N/A N/A S18         N/A
Bridgeport     SUNNY     84  75  74 S15       29.83F HX  92
Meriden        SUNNY     85  73  67 S15G24    29.83F HX  91
New Haven      MOSUNNY   83  74  74 S12G21    29.84F
Chester        CLOUDY    81  75  83 SW15G21   29.86F
Groton         CLOUDY    76  73  91 SW8       29.85F FOG
Wilimantic     MOSUNNY   85  73  67 S14       29.83F HX  91

 IN RI

CITY           SKY/WX    TMP DP  RH WIND       PRES   REMARKS
Providence     MOSUNNY   83  74  74 S23G29    29.86S
Block Island   CLOUDY    75  72  90 S16G22    29.89S FOG
Westerly       CLOUDY    78  74  87 SW10G18   29.88F FOG
 IN MA

CITY           SKY/WX    TMP DP  RH WIND       PRES   REMARKS
Boston         MOSUNNY   87  73  62 S16       29.79F HX  94
Worcester      MOSUNNY   84  66  54 S15G28    29.84F
Westfield      MOSUNNY   89  72  56 S13G22    29.77F HX  96
Provincetown   CLOUDY    77  72  84 S16G22    29.86F
Nantucket      CLOUDY    72  72 100 S15       29.91F FOG
$$

ANZ330-335-338-340-345-350-353-355-222200-
COASTAL MARINE OBSERVATIONS


STATION/POSITION TIME  SKY/WX   TEMP    WIND        PRES    VSBY  WAVE
                                AIR SEA DIR/SP/G                  HT/PER
                 (UTC)          (F)     (DEG/KT/KT) (MB)    (MI)  (FT/S)
NY HARB ENTRANCE NOT AVBL
GREAT SOUTH BAY  2030            78 79  220/ 19/ 21   N/A
23 SSW MONTAUK P NOT AVBL
15 E BARNEGAT LI 2030               77                N/A           5/ 5
HUDSON CANYON    NOT AVBL
KINGS POINT      2024            82 76  220/ 18/ 20 1010.0
EXECUTION ROCKS  NOT AVBL
WESTERN LI SOUND NOT AVBL
CENTRAL LI SOUND NOT AVBL
EASTERN LI SOUND NOT AVBL
ROBBINS REEF     2024                   220/ 16/ 21 1010.7
$$


>>>>>>>>>>>>>>>>>>>>>>>>>>>> KEY <<<<<<<<<<<<<<<<<<<<<<<<<<<
>                                                          <
>     SKY/WX - Sky Condition/Present Weather               <
>     TMP    - Temperature in Fahrenheit                   <
>     DP     - Dew Point in Fahrenheit                     <
>     RH     - Relative Humidity in Percent                <
>     WIND   - Direction (from) and Speed in MPH           <
>     PRES   - Mean Sea Level Pressure (inches of Hg)      <
>     WCI    - Wind Chill Index                            <
>     VSB    - VISIBILITY IN MILES                         <
>     HX     - HEAT INDEX                                  <
>     TC     - TEMPERATURE IN CELSIUS                      <
>     VRB    - VARIABLE WIND DIRECTION                     <
>                                                          <
>>>>>>>>>>>>>>>>>>>>>>>>>>>> KEY <<<<<<<<<<<<<<<<<<<<<<<<<<<



USA.gov is the U.S. government's official web portal to all federal, state and local government web resources and services.